This demonstration page uses our WeatherBlox Daily Observations layout. Learn more.

Left ArrowRight Arrow

Hourly Observations for May 23, 2017

Temp ( °F °C ) Dew Point ( °F °C ) Humidity (%) Winds ( mph kmh ) Pressure ( in mb ) Visibility ( mi km ) Precip ( " mm )
12:56 am 00:56 Clear 56 13.4 48 8.9 74 74 NW 12 19 29.90 1013 10 16 0.00 0.00
1:56 am 01:56 Mostly Clear 54 12.4 46 7.5 72 72 NNW 10 17 29.90 1013 10 16 0.00 0.00
2:56 am 02:56 Mostly Clear 52 11.1 45 7 76 76 NW 8 13 29.91 1013 10 16 0.00 0.00
3:56 am 03:56 Mostly Clear 51 10.3 46 7.7 84 84 WNW 8 13 29.91 1013 10 16 0.00 0.00
4:56 am 04:56 Clear 48 9 45 7.3 89 89 WNW 7 11 29.91 1013 10 16 0.00 0.00
5:56 am 05:56 Clear 48 9.1 44 6.5 84 84 NW 8 13 29.91 1013 10 16 0.00 0.00
6:56 am 06:56 Sunny 50 9.8 43 6.1 78 78 NW 8 13 29.91 1013 10 16 0.00 0.00
7:56 am 07:56 Sunny 53 11.5 43 6.2 70 70 NNW 13 20 29.92 1013 10 16 0.00 0.00
8:56 am 08:56 Mostly Sunny 55 12.8 44 6.6 66 66 NW 10 17 29.91 1013 10 16 0.00 0.00
9:56 am 09:56 Mostly Cloudy 56 13.4 44 6.7 64 64 NNW 14 22 29.91 1013 10 16 0.00 0.00
10:56 am 10:56 Cloudy 56 13.6 44 6.7 63 63 NW 15 24 29.90 1013 10 16 0.00 0.00
11:56 am 11:56 Cloudy 57 13.7 44 6.8 63 63 WNW 13 20 29.89 1012 10 16 0.00 0.00
12:56 pm 12:56 Cloudy 57 14.1 45 7.4 64 64 WNW 13 20 29.88 1012 10 16 0.00 0.00
1:53 pm 13:53 Cloudy with Light Rain 59 15 45 7 59 59 NW 15 24 29.85 1011 10 16 0.00 0.00
1:56 pm 13:56 Cloudy with Light Rain 58 14.4 44 6.7 60 60 NW 15 24 29.85 1011 10 16 0.00 0.03
2:02 pm 14:02 Cloudy 57 14 43 6 59 59 NW 18 30 29.85 1011 10 16 0.00 0.00
2:56 pm 14:56 Cloudy 58 14.5 44 6.8 60 60 NW 8 13 29.85 1011 10 16 0.00 0.03
3:26 pm 15:26 Cloudy with Light Rain 59 15 45 7 59 59 N 10 17 29.85 1011 10 16 0.00 0.00
3:36 pm 15:36 Cloudy 57 14 46 8 67 67 N 7 11 29.84 1011 10 16 0.00 0.00
3:41 pm 15:41 Cloudy with Light Rain 57 14 46 8 67 67 N 10 17 29.85 1011 10 16 0.00 0.00
3:56 pm 15:56 Cloudy with Light Rain 56 13.6 46 7.6 67 67 NW 8 13 29.84 1011 10 16 0.00 0.03
3:58 pm 15:58 Cloudy 57 14 46 8 67 67 NW 7 11 29.84 1011 10 16 0.00 0.00
4:08 pm 16:08 Cloudy with Light Rain 57 14 45 7 63 63 NNW 6 9 29.84 1011 10 16 0.00 0.00
4:17 pm 16:17 Cloudy 57 14 46 8 67 67 N 6 9 29.84 1011 10 16 0.00 0.00
4:56 pm 16:56 Cloudy 58 14.6 44 6.9 60 60 NNW 12 19 29.83 1010 10 16 0.00 0.03
5:56 pm 17:56 Cloudy 60 15.3 45 7.3 59 59 WNW 15 24 29.83 1010 10 16 0.00 0.00
6:43 pm 18:43 Cloudy with Heavy Rain 57 14 46 8 67 67 NNW 15 24 29.84 1011 10 16 0.00 0.00
6:56 pm 18:56 Cloudy with Light Rain 53 11.4 47 8.6 83 83 NW 9 15 29.84 1010 10 16 0.01 0.25
7:04 pm 19:04 Cloudy 52 11 48 9 88 88 NW 7 11 29.83 1010 10 16 0.00 0.00
7:56 pm 19:56 Cloudy 54 12.1 47 8.2 77 77 NNW 8 13 29.84 1011 10 16 0.00 0.03
8:56 pm 20:56 Cloudy 53 11.7 48 8.7 82 82 NW 8 13 29.83 1010 10 16 0.00 0.00
9:03 pm 21:03 Cloudy with Light Rain 54 12 48 9 82 82 NNW 8 13 29.83 1010 10 16 0.00 0.00
9:37 pm 21:37 Cloudy 52 11 48 9 88 88 NW 8 13 29.83 1010 10 16 0.00 0.00
9:56 pm 21:56 Cloudy 51 10.8 47 8.5 86 86 NW 7 11 29.83 1010 10 16 0.02 0.51
10:56 pm 22:56 Cloudy 51 10.4 47 8.5 88 88 WNW 8 13 29.83 1010 10 16 0.00 0.00
11:56 pm 23:56 Mostly Clear 50 9.8 47 8.1 89 89 NW 7 11 29.82 1010 10 16 0.00 0.00

Powered by AerisWeather